User: anonymous
Location: Mauna Kea VIS
(19.7591°N, 155.4561°W)
Time: 04:07:09
(UTC-10:00)
Language:

Cosmos 1624 Rocket - Orbit

View from above orbital plane
View from above orbital plane
View from above satellite
View from above satellite

Ground track
Ground track

The orbit data is extracted from the following two-line orbital elements,

1 15483U 85006B   14264.03302745  .00000231  00000-0  88513-4 0  3282
2 15483 074.0482 030.4614 0019854 259.4201 156.9235 14.35861528552989
Epoch (UTC): 21 September 2014 00:47:33
Eccentricity: 0.0019854
inclination: 74.0482°
perigee height: 758 km
apogee height: 786 km
right ascension of ascending node: 30.4614°
argument of perigee: 259.4201°
revolutions per day: 14.35861528
mean anomaly at epoch: 156.9235°
orbit number at epoch: 55298

The dashed part of the orbit path shows where the satellite is in the earth's shadow,  

DLR